Tracking 21474 objects as of 25-Sep-2020
HD Live streaming from Space Station
objects crossing your sky now

ERS 9

Track ERS 9 now!
10-day predictions
ERS 9 is classified as:


NORAD ID: 635
Int'l Code: 1963-030B
Perigee: 3,648.9 km
Apogee: 3,767.9 km
Inclination: 88.4 °
Period: 167.8 minutes
Semi major axis: 10079 km
RCS: 0.0885 m2 (small)
Launch date: July 19, 1963
Source: United States (US)
Launch site: AIR FORCE WESTERN TEST RANGE (AFWTR)
aabbcc
Your satellite tracking list
Your tracking list is empty




NASA's NSSDC Master Catalog

Two Line Element Set (TLE):
1   635U 63030B   20269.35101059 -.00000021 +00000-0 -11935-1 0  9994
2   635 088.4224 332.4572 0059021 331.0471 028.7111 08.57929505791126
Source of the keplerian elements: AFSPC